User: anonymous   Login
Location: Unspecified
(0.0000°N, 0.0000°E)
Time: 20:46:10
(UTC+00:00)
Language:

BEIDOU IGSO 1 - Orbit

View from above orbital plane
View from above orbital plane
View from above satellite
View from above satellite

Ground track
Ground track

The orbit is defined by the following mean orbital elements,

1 36828U          26150.45354991 +.00000000 +00000-0 +00000-0 0 00004
2 36828  54.2994 163.1194 0058769 225.1266 130.5780  1.00277601    04
Epoch (UTC): 30 May 2026 10:53:06
Eccentricity: 0.0058769
inclination: 54.2994°
perigee height: 35537 km
apogee height: 36033 km
right ascension of ascending node: 163.1194°
argument of perigee: 225.1266°
revolutions per day: 1.00277601
mean anomaly at epoch: 130.5780°

The dashed part of the orbit path shows where the satellite is in the earth's shadow,  

DLR